Time,TemperatureF,DewpointF,PressureIn,WindDirection,WindDirectionDegrees,WindSpeedMPH,WindSpeedGustMPH,Humidity,HourlyPrecipIn,Conditions,Clouds,dailyrainin,SoftwareType,DateUTC
2013-02-15 00:00:00,42.0,30.7,29.92,WSW,248,2.0,5.0,64,0.00,,,0.00,Weather View 32 v70,2013-02-15 05:00:00,
2013-02-15 00:05:00,42.0,31.1,29.92,West,270,2.0,5.0,65,0.00,,,0.00,Weather View 32 v70,2013-02-15 05:05:00,
2013-02-15 00:10:00,42.0,31.1,29.92,SW,225,1.0,5.0,65,0.00,,,0.00,Weather View 32 v70,2013-02-15 05:10:00,
2013-02-15 00:15:00,42.0,31.1,29.92,WSW,248,2.0,5.0,65,0.00,,,0.00,Weather View 32 v70,2013-02-15 05:15:00,
2013-02-15 00:20:00,42.0,31.5,29.92,WSW,248,1.0,5.0,66,0.00,,,0.00,Weather View 32 v70,2013-02-15 05:20:00,
2013-02-15 00:25:00,41.0,30.5,29.92,WSW,248,2.0,5.0,66,0.00,,,0.00,Weather View 32 v70,2013-02-15 05:25:00,
2013-02-15 00:30:00,41.0,30.5,29.93,SSW,202,2.0,5.0,66,0.00,,,0.00,Weather View 32 v70,2013-02-15 05:30:00,
2013-02-15 00:35:00,41.0,30.9,29.93,WSW,248,1.0,5.0,67,0.00,,,0.00,Weather View 32 v70,2013-02-15 05:35:00,
2013-02-15 00:40:00,41.0,30.9,29.93,WSW,248,2.0,5.0,67,0.00,,,0.00,Weather View 32 v70,2013-02-15 05:40:00,
2013-02-15 00:45:00,41.0,30.9,29.93,WSW,248,1.0,5.0,67,0.00,,,0.00,Weather View 32 v70,2013-02-15 05:45:00,
2013-02-15 00:50:00,41.0,30.9,29.93,West,270,1.0,4.0,67,0.00,,,0.00,Weather View 32 v70,2013-02-15 05:50:00,
2013-02-15 00:55:00,41.0,30.9,29.93,West,270,1.0,4.0,67,0.00,,,0.00,Weather View 32 v70,2013-02-15 05:55:00,
2013-02-15 01:00:00,41.0,31.2,29.93,West,270,1.0,3.0,68,0.00,,,0.00,Weather View 32 v70,2013-02-15 06:00:00,
2013-02-15 01:05:00,41.0,30.9,29.93,NNE,22,1.0,3.0,67,0.00,,,0.00,Weather View 32 v70,2013-02-15 06:05:00,
2013-02-15 01:10:00,41.0,31.2,29.93,NW,315,0.0,3.0,68,0.00,,,0.00,Weather View 32 v70,2013-02-15 06:10:00,
2013-02-15 01:15:00,41.0,31.2,29.93,NW,315,0.0,3.0,68,0.00,,,0.00,Weather View 32 v70,2013-02-15 06:15:00,
2013-02-15 01:20:00,40.0,30.3,29.93,North,0,1.0,3.0,68,0.00,,,0.00,Weather View 32 v70,2013-02-15 06:20:00,
2013-02-15 01:25:00,40.0,30.6,29.93,NNW,338,0.0,3.0,69,0.00,,,0.00,Weather View 32 v70,2013-02-15 06:25:00,
2013-02-15 01:30:00,40.0,30.6,29.93,NNW,338,1.0,3.0,69,0.00,,,0.00,Weather View 32 v70,2013-02-15 06:30:00,
2013-02-15 01:35:00,40.0,30.6,29.93,NNW,338,2.0,3.0,69,0.00,,,0.00,Weather View 32 v70,2013-02-15 06:35:00,
2013-02-15 01:40:00,40.0,30.6,29.93,NNW,338,1.0,3.0,69,0.00,,,0.00,Weather View 32 v70,2013-02-15 06:40:00,
2013-02-15 01:45:00,40.0,31.0,29.93,NE,45,0.0,3.0,70,0.00,,,0.00,Weather View 32 v70,2013-02-15 06:45:00,
2013-02-15 01:50:00,39.0,30.0,29.93,ENE,68,0.0,3.0,70,0.00,,,0.00,Weather View 32 v70,2013-02-15 06:50:00,
2013-02-15 01:55:00,39.0,30.4,29.93,WSW,248,1.0,3.0,71,0.00,,,0.00,Weather View 32 v70,2013-02-15 06:55:00,
2013-02-15 02:00:00,39.0,30.7,29.93,SSW,202,2.0,3.0,72,0.00,,,0.00,Weather View 32 v70,2013-02-15 07:00:00,
2013-02-15 02:05:00,39.0,30.4,29.93,WSW,248,3.0,5.0,71,0.00,,,0.00,Weather View 32 v70,2013-02-15 07:05:00,
2013-02-15 02:10:00,40.0,31.0,29.93,West,270,2.0,6.0,70,0.00,,,0.00,Weather View 32 v70,2013-02-15 07:10:00,
2013-02-15 02:15:00,40.0,31.0,29.93,SW,225,3.0,6.0,70,0.00,,,0.00,Weather View 32 v70,2013-02-15 07:15:00,
2013-02-15 02:20:00,40.0,30.6,29.93,West,270,4.0,6.0,69,0.00,,,0.00,Weather View 32 v70,2013-02-15 07:20:00,
2013-02-15 02:25:00,40.0,30.6,29.92,WSW,248,4.0,6.0,69,0.00,,,0.00,Weather View 32 v70,2013-02-15 07:25:00,
2013-02-15 02:30:00,40.0,30.6,29.92,West,270,3.0,6.0,69,0.00,,,0.00,Weather View 32 v70,2013-02-15 07:30:00,
2013-02-15 02:35:00,40.0,30.6,29.92,WSW,248,3.0,6.0,69,0.00,,,0.00,Weather View 32 v70,2013-02-15 07:35:00,
2013-02-15 02:40:00,40.0,30.6,29.92,WSW,248,3.0,6.0,69,0.00,,,0.00,Weather View 32 v70,2013-02-15 07:40:00,
2013-02-15 02:45:00,40.0,30.6,29.92,SW,225,3.0,6.0,69,0.00,,,0.00,Weather View 32 v70,2013-02-15 07:45:00,
2013-02-15 02:50:00,40.0,30.6,29.92,SW,225,3.0,6.0,69,0.00,,,0.00,Weather View 32 v70,2013-02-15 07:50:00,
2013-02-15 02:55:00,40.0,30.6,29.92,WNW,292,2.0,6.0,69,0.00,,,0.00,Weather View 32 v70,2013-02-15 07:55:00,
2013-02-15 03:00:00,40.0,30.6,29.92,WSW,248,2.0,6.0,69,0.00,,,0.00,Weather View 32 v70,2013-02-15 08:00:00,
2013-02-15 03:05:00,41.0,31.6,29.92,WSW,248,2.0,6.0,69,0.00,,,0.00,Weather View 32 v70,2013-02-15 08:05:00,
2013-02-15 03:10:00,41.0,31.6,29.92,West,270,2.0,5.0,69,0.00,,,0.00,Weather View 32 v70,2013-02-15 08:10:00,
2013-02-15 03:15:00,41.0,31.6,29.92,West,270,1.0,5.0,69,0.00,,,0.00,Weather View 32 v70,2013-02-15 08:15:00,
2013-02-15 03:20:00,41.0,31.6,29.92,SW,225,1.0,5.0,69,0.00,,,0.00,Weather View 32 v70,2013-02-15 08:20:00,
2013-02-15 03:25:00,41.0,31.6,29.92,WSW,248,1.0,5.0,69,0.00,,,0.00,Weather View 32 v70,2013-02-15 08:25:00,
2013-02-15 03:30:00,41.0,31.6,29.92,SW,225,1.0,5.0,69,0.00,,,0.00,Weather View 32 v70,2013-02-15 08:30:00,
2013-02-15 03:35:00,41.0,31.6,29.92,West,270,1.0,5.0,69,0.00,,,0.00,Weather View 32 v70,2013-02-15 08:35:00,
2013-02-15 03:40:00,40.0,30.6,29.92,WSW,248,1.0,5.0,69,0.00,,,0.00,Weather View 32 v70,2013-02-15 08:40:00,
2013-02-15 03:45:00,40.0,30.6,29.92,South,180,1.0,4.0,69,0.00,,,0.00,Weather View 32 v70,2013-02-15 08:45:00,
2013-02-15 03:50:00,40.0,30.6,29.92,SSE,158,0.0,3.0,69,0.00,,,0.00,Weather View 32 v70,2013-02-15 08:50:00,
2013-02-15 03:55:00,40.0,30.6,29.92,SSE,158,2.0,3.0,69,0.00,,,0.00,Weather View 32 v70,2013-02-15 08:55:00,
2013-02-15 04:00:00,40.0,30.6,29.92,West,270,2.0,3.0,69,0.00,,,0.00,Weather View 32 v70,2013-02-15 09:00:00,
2013-02-15 04:05:00,40.0,30.6,29.92,South,180,0.0,3.0,69,0.00,,,0.00,Weather View 32 v70,2013-02-15 09:05:00,
2013-02-15 04:10:00,39.0,29.7,29.92,SSW,202,1.0,3.0,69,0.00,,,0.00,Weather View 32 v70,2013-02-15 09:10:00,
2013-02-15 04:15:00,39.0,29.7,29.93,West,270,0.0,3.0,69,0.00,,,0.00,Weather View 32 v70,2013-02-15 09:15:00,
2013-02-15 04:20:00,39.0,29.7,29.92,East,90,0.0,3.0,69,0.00,,,0.00,Weather View 32 v70,2013-02-15 09:20:00,
2013-02-15 04:25:00,39.0,30.0,29.92,ESE,112,0.0,3.0,70,0.00,,,0.00,Weather View 32 v70,2013-02-15 09:25:00,
2013-02-15 04:30:00,39.0,29.7,29.92,ESE,112,0.0,3.0,69,0.00,,,0.00,Weather View 32 v70,2013-02-15 09:30:00,
2013-02-15 04:35:00,39.0,30.0,29.92,ESE,112,0.0,3.0,70,0.00,,,0.00,Weather View 32 v70,2013-02-15 09:35:00,
2013-02-15 04:40:00,39.0,30.4,29.92,ENE,68,0.0,3.0,71,0.00,,,0.00,Weather View 32 v70,2013-02-15 09:40:00,
2013-02-15 04:45:00,39.0,30.4,29.92,ESE,112,0.0,3.0,71,0.00,,,0.00,Weather View 32 v70,2013-02-15 09:45:00,
2013-02-15 04:50:00,39.0,30.4,29.92,East,90,0.0,3.0,71,0.00,,,0.00,Weather View 32 v70,2013-02-15 09:50:00,
2013-02-15 04:55:00,39.0,30.4,29.92,ESE,112,0.0,3.0,71,0.00,,,0.00,Weather View 32 v70,2013-02-15 09:55:00,
2013-02-15 05:00:00,39.0,30.7,29.92,ESE,112,0.0,3.0,72,0.00,,,0.00,Weather View 32 v70,2013-02-15 10:00:00,
2013-02-15 05:05:00,39.0,30.7,29.92,ESE,112,0.0,3.0,72,0.00,,,0.00,Weather View 32 v70,2013-02-15 10:05:00,
2013-02-15 05:10:00,38.0,29.8,29.92,ENE,68,0.0,3.0,72,0.00,,,0.00,Weather View 32 v70,2013-02-15 10:10:00,
2013-02-15 05:15:00,38.0,29.8,29.93,SSE,158,0.0,0.0,72,0.00,,,0.00,Weather View 32 v70,2013-02-15 10:15:00,
2013-02-15 05:20:00,38.0,29.8,29.93,ESE,112,0.0,0.0,72,0.00,,,0.00,Weather View 32 v70,2013-02-15 10:20:00,
2013-02-15 05:25:00,39.0,30.4,29.93,South,180,0.0,0.0,71,0.00,,,0.00,Weather View 32 v70,2013-02-15 10:25:00,
2013-02-15 05:30:00,39.0,30.0,29.93,South,180,1.0,2.0,70,0.00,,,0.00,Weather View 32 v70,2013-02-15 10:30:00,
2013-02-15 05:35:00,39.0,30.0,29.93,SSE,158,0.0,2.0,70,0.00,,,0.00,Weather View 32 v70,2013-02-15 10:35:00,
2013-02-15 05:40:00,39.0,29.7,29.93,SW,225,1.0,2.0,69,0.00,,,0.00,Weather View 32 v70,2013-02-15 10:40:00,
2013-02-15 05:45:00,39.0,29.7,29.92,SW,225,2.0,3.0,69,0.00,,,0.00,Weather View 32 v70,2013-02-15 10:45:00,
2013-02-15 05:50:00,39.0,29.3,29.92,SSE,158,0.0,3.0,68,0.00,,,0.00,Weather View 32 v70,2013-02-15 10:50:00,
2013-02-15 05:55:00,39.0,29.3,29.92,SE,135,0.0,3.0,68,0.00,,,0.00,Weather View 32 v70,2013-02-15 10:55:00,
2013-02-15 06:00:00,39.0,29.3,29.92,ESE,112,0.0,3.0,68,0.00,,,0.00,Weather View 32 v70,2013-02-15 11:00:00,
2013-02-15 06:05:00,39.0,29.7,29.92,ENE,68,1.0,3.0,69,0.00,,,0.00,Weather View 32 v70,2013-02-15 11:05:00,
2013-02-15 06:10:00,39.0,29.3,29.93,ENE,68,0.0,3.0,68,0.00,,,0.00,Weather View 32 v70,2013-02-15 11:10:00,
2013-02-15 06:15:00,39.0,29.7,29.93,SW,225,1.0,3.0,69,0.00,,,0.00,Weather View 32 v70,2013-02-15 11:15:00,
2013-02-15 06:20:00,39.0,29.7,29.93,ESE,112,1.0,3.0,69,0.00,,,0.00,Weather View 32 v70,2013-02-15 11:20:00,
2013-02-15 06:26:00,39.0,29.7,29.93,WSW,248,2.0,3.0,69,0.00,,,0.00,Weather View 32 v70,2013-02-15 11:26:00,
2013-02-15 06:31:00,38.0,28.7,29.93,SW,225,2.0,4.0,69,0.00,,,0.00,Weather View 32 v70,2013-02-15 11:31:00,
2013-02-15 06:36:00,38.0,28.7,29.94,NNW,338,3.0,6.0,69,0.00,,,0.00,Weather View 32 v70,2013-02-15 11:36:00,
2013-02-15 06:41:00,38.0,28.7,29.94,WSW,248,1.0,6.0,69,0.00,,,0.00,Weather View 32 v70,2013-02-15 11:41:00,
2013-02-15 06:46:00,39.0,29.7,29.94,SSW,202,2.0,6.0,69,0.00,,,0.00,Weather View 32 v70,2013-02-15 11:46:00,
2013-02-15 06:51:00,39.0,29.3,29.94,SSE,158,1.0,6.0,68,0.00,,,0.00,Weather View 32 v70,2013-02-15 11:51:00,
2013-02-15 06:56:00,39.0,29.3,29.94,North,0,2.0,6.0,68,0.00,,,0.00,Weather View 32 v70,2013-02-15 11:56:00,
2013-02-15 07:01:00,39.0,29.3,29.94,South,180,4.0,6.0,68,0.00,,,0.00,Weather View 32 v70,2013-02-15 12:01:00,
2013-02-15 07:06:00,39.0,29.3,29.94,WSW,248,2.0,6.0,68,0.00,,,0.00,Weather View 32 v70,2013-02-15 12:06:00,
2013-02-15 07:11:00,39.0,29.3,29.94,WNW,292,1.0,6.0,68,0.00,,,0.00,Weather View 32 v70,2013-02-15 12:11:00,
2013-02-15 07:16:00,38.0,28.4,29.94,SSW,202,4.0,6.0,68,0.00,,,0.00,Weather View 32 v70,2013-02-15 12:16:00,
2013-02-15 07:21:00,38.0,28.4,29.95,SSW,202,2.0,6.0,68,0.00,,,0.00,Weather View 32 v70,2013-02-15 12:21:00,
2013-02-15 07:26:00,38.0,28.4,29.95,SW,225,3.0,6.0,68,0.00,,,0.00,Weather View 32 v70,2013-02-15 12:26:00,
2013-02-15 07:31:00,38.0,28.7,29.95,SSW,202,3.0,7.0,69,0.00,,,0.00,Weather View 32 v70,2013-02-15 12:31:00,
2013-02-15 07:36:00,38.0,28.7,29.94,South,180,2.0,7.0,69,0.00,,,0.00,Weather View 32 v70,2013-02-15 12:36:00,
2013-02-15 07:41:00,38.0,29.1,29.95,South,180,3.0,7.0,70,0.00,,,0.00,Weather View 32 v70,2013-02-15 12:41:00,
2013-02-15 07:46:00,37.0,28.5,29.95,SSW,202,4.0,7.0,71,0.00,,,0.00,Weather View 32 v70,2013-02-15 12:46:00,
2013-02-15 07:51:00,37.0,28.5,29.95,WSW,248,4.0,7.0,71,0.00,,,0.00,Weather View 32 v70,2013-02-15 12:51:00,
2013-02-15 07:56:00,37.0,28.8,29.95,South,180,1.0,7.0,72,0.00,,,0.00,Weather View 32 v70,2013-02-15 12:56:00,
2013-02-15 08:01:00,37.0,28.8,29.95,SSW,202,1.0,7.0,72,0.00,,,0.00,Weather View 32 v70,2013-02-15 13:01:00,
2013-02-15 08:06:00,38.0,29.4,29.96,SSW,202,2.0,7.0,71,0.00,,,0.00,Weather View 32 v70,2013-02-15 13:06:00,
2013-02-15 08:11:00,38.0,29.1,29.96,SW,225,4.0,7.0,70,0.00,,,0.00,Weather View 32 v70,2013-02-15 13:11:00,
2013-02-15 08:16:00,39.0,29.7,29.96,West,270,3.0,7.0,69,0.00,,,0.00,Weather View 32 v70,2013-02-15 13:16:00,
2013-02-15 08:21:00,39.0,29.0,29.95,SW,225,2.0,7.0,67,0.00,,,0.00,Weather View 32 v70,2013-02-15 13:21:00,
2013-02-15 08:26:00,40.0,29.9,29.96,South,180,2.0,7.0,67,0.00,,,0.00,Weather View 32 v70,2013-02-15 13:26:00,
2013-02-15 08:31:00,40.0,29.5,29.96,SSW,202,3.0,6.0,66,0.00,,,0.00,Weather View 32 v70,2013-02-15 13:31:00,
2013-02-15 08:36:00,40.0,29.2,29.96,ENE,68,0.0,6.0,65,0.00,,,0.00,Weather View 32 v70,2013-02-15 13:36:00,
2013-02-15 08:41:00,41.0,29.7,29.96,SSW,202,1.0,6.0,64,0.00,,,0.00,Weather View 32 v70,2013-02-15 13:41:00,
2013-02-15 08:46:00,41.0,29.7,29.96,SSW,202,3.0,6.0,64,0.00,,,0.00,Weather View 32 v70,2013-02-15 13:46:00,
2013-02-15 08:51:00,41.0,30.1,29.96,SSW,202,2.0,6.0,65,0.00,,,0.00,Weather View 32 v70,2013-02-15 13:51:00,
2013-02-15 08:56:00,41.0,30.1,29.96,WNW,292,1.0,6.0,65,0.00,,,0.00,Weather View 32 v70,2013-02-15 13:56:00,
2013-02-15 09:01:00,41.0,30.1,29.96,NNW,338,1.0,5.0,65,0.00,,,0.00,Weather View 32 v70,2013-02-15 14:01:00,
2013-02-15 09:06:00,41.0,30.1,29.96,SW,225,2.0,5.0,65,0.00,,,0.00,Weather View 32 v70,2013-02-15 14:06:00,
2013-02-15 09:11:00,41.0,30.1,29.96,WSW,248,1.0,6.0,65,0.00,,,0.00,Weather View 32 v70,2013-02-15 14:11:00,
2013-02-15 09:16:00,41.0,30.1,29.97,WSW,248,4.0,6.0,65,0.00,,,0.00,Weather View 32 v70,2013-02-15 14:16:00,
2013-02-15 09:21:00,42.0,31.1,29.97,WSW,248,3.0,6.0,65,0.00,,,0.00,Weather View 32 v70,2013-02-15 14:21:00,
2013-02-15 09:26:00,42.0,31.5,29.97,West,270,3.0,6.0,66,0.00,,,0.00,Weather View 32 v70,2013-02-15 14:26:00,
2013-02-15 09:31:00,42.0,31.8,29.96,West,270,5.0,6.0,67,0.00,,,0.00,Weather View 32 v70,2013-02-15 14:31:00,
2013-02-15 09:36:00,42.0,31.8,29.96,WSW,248,4.0,6.0,67,0.00,,,0.00,Weather View 32 v70,2013-02-15 14:36:00,
2013-02-15 09:41:00,42.0,32.2,29.96,East,90,0.0,6.0,68,0.00,,,0.00,Weather View 32 v70,2013-02-15 14:41:00,
2013-02-15 09:46:00,42.0,32.2,29.96,SSW,202,1.0,6.0,68,0.00,,,0.00,Weather View 32 v70,2013-02-15 14:46:00,
2013-02-15 09:51:00,42.0,32.2,29.96,ESE,112,0.0,6.0,68,0.00,,,0.00,Weather View 32 v70,2013-02-15 14:51:00,
2013-02-15 09:56:00,42.0,32.2,29.96,SSE,158,1.0,6.0,68,0.00,,,0.00,Weather View 32 v70,2013-02-15 14:56:00,
2013-02-15 10:01:00,43.0,33.1,29.96,SW,225,1.0,6.0,68,0.00,,,0.00,Weather View 32 v70,2013-02-15 15:01:00,
2013-02-15 10:06:00,43.0,33.1,29.96,SSW,202,1.0,6.0,68,0.00,,,0.00,Weather View 32 v70,2013-02-15 15:06:00,
2013-02-15 10:11:00,44.0,33.4,29.95,WSW,248,1.0,6.0,66,0.00,,,0.00,Weather View 32 v70,2013-02-15 15:11:00,
2013-02-15 10:16:00,45.0,34.3,29.95,West,270,3.0,6.0,66,0.00,,,0.00,Weather View 32 v70,2013-02-15 15:16:00,
2013-02-15 10:21:00,46.0,34.9,29.95,NW,315,3.0,6.0,65,0.00,,,0.00,Weather View 32 v70,2013-02-15 15:21:00,
2013-02-15 10:26:00,46.0,34.1,29.95,ENE,68,1.0,6.0,63,0.00,,,0.00,Weather View 32 v70,2013-02-15 15:26:00,
2013-02-15 10:31:00,47.0,35.4,29.95,NE,45,1.0,6.0,64,0.00,,,0.00,Weather View 32 v70,2013-02-15 15:31:00,
2013-02-15 10:36:00,47.0,35.0,29.95,NNE,22,3.0,6.0,63,0.00,,,0.00,Weather View 32 v70,2013-02-15 15:36:00,
2013-02-15 10:41:00,48.0,36.0,29.95,West,270,1.0,5.0,63,0.00,,,0.00,Weather View 32 v70,2013-02-15 15:41:00,
2013-02-15 10:46:00,49.0,36.5,29.95,East,90,0.0,5.0,62,0.00,,,0.00,Weather View 32 v70,2013-02-15 15:46:00,
2013-02-15 10:51:00,49.0,35.3,29.95,NNE,22,3.0,5.0,59,0.00,,,0.00,Weather View 32 v70,2013-02-15 15:51:00,
2013-02-15 10:56:00,49.0,35.3,29.95,North,0,1.0,5.0,59,0.00,,,0.00,Weather View 32 v70,2013-02-15 15:56:00,
2013-02-15 11:01:00,50.0,34.9,29.95,WNW,292,5.0,8.0,56,0.00,,,0.00,Weather View 32 v70,2013-02-15 16:01:00,
2013-02-15 11:06:00,50.0,33.0,29.95,NW,315,3.0,8.0,52,0.00,,,0.00,Weather View 32 v70,2013-02-15 16:06:00,
2013-02-15 11:11:00,51.0,34.0,29.95,WNW,292,3.0,8.0,52,0.00,,,0.00,Weather View 32 v70,2013-02-15 16:11:00,
2013-02-15 11:16:00,51.0,33.5,29.95,West,270,5.0,8.0,51,0.00,,,0.00,Weather View 32 v70,2013-02-15 16:16:00,
2013-02-15 11:21:00,52.0,33.9,29.94,West,270,5.0,8.0,50,0.00,,,0.00,Weather View 32 v70,2013-02-15 16:21:00,
2013-02-15 11:26:00,52.0,33.9,29.94,SSW,202,4.0,8.0,50,0.00,,,0.00,Weather View 32 v70,2013-02-15 16:26:00,
2013-02-15 11:31:00,52.0,34.4,29.94,West,270,3.0,9.0,51,0.00,,,0.00,Weather View 32 v70,2013-02-15 16:31:00,
2013-02-15 11:36:00,52.0,33.9,29.94,ESE,112,3.0,9.0,50,0.00,,,0.00,Weather View 32 v70,2013-02-15 16:36:00,
2013-02-15 11:41:00,53.0,34.3,29.94,West,270,5.0,9.0,49,0.00,,,0.00,Weather View 32 v70,2013-02-15 16:41:00,
2013-02-15 11:46:00,54.0,34.7,29.93,West,270,6.0,9.0,48,0.00,,,0.00,Weather View 32 v70,2013-02-15 16:46:00,
2013-02-15 11:51:00,54.0,35.7,29.93,WNW,292,4.0,14.0,50,0.00,,,0.00,Weather View 32 v70,2013-02-15 16:51:00,
2013-02-15 11:56:00,54.0,34.7,29.93,West,270,5.0,14.0,48,0.00,,,0.00,Weather View 32 v70,2013-02-15 16:56:00,
2013-02-15 12:01:00,55.0,34.6,29.92,NW,315,3.0,14.0,46,0.00,,,0.00,Weather View 32 v70,2013-02-15 17:01:00,
2013-02-15 12:06:00,54.0,32.5,29.92,SW,225,8.0,14.0,44,0.00,,,0.00,Weather View 32 v70,2013-02-15 17:06:00,
2013-02-15 12:11:00,54.0,33.6,29.92,SW,225,6.0,16.0,46,0.00,,,0.00,Weather View 32 v70,2013-02-15 17:11:00,
2013-02-15 12:16:00,53.0,31.6,29.92,West,270,5.0,16.0,44,0.00,,,0.00,Weather View 32 v70,2013-02-15 17:16:00,
2013-02-15 12:21:00,53.0,32.7,29.91,SSW,202,13.0,16.0,46,0.00,,,0.00,Weather View 32 v70,2013-02-15 17:21:00,
2013-02-15 12:26:00,53.0,32.2,29.92,WSW,248,14.0,18.0,45,0.00,,,0.00,Weather View 32 v70,2013-02-15 17:26:00,
2013-02-15 12:31:00,52.0,31.3,29.91,WSW,248,10.0,18.0,45,0.00,,,0.00,Weather View 32 v70,2013-02-15 17:31:00,
2013-02-15 12:36:00,52.0,30.7,29.91,West,270,6.0,18.0,44,0.00,,,0.00,Weather View 32 v70,2013-02-15 17:36:00,
2013-02-15 12:41:00,51.0,30.9,29.91,WNW,292,4.0,18.0,46,0.00,,,0.00,Weather View 32 v70,2013-02-15 17:41:00,
2013-02-15 12:46:00,51.0,33.0,29.91,WSW,248,3.0,18.0,50,0.00,,,0.00,Weather View 32 v70,2013-02-15 17:46:00,
2013-02-15 12:51:00,52.0,34.9,29.90,WSW,248,4.0,18.0,52,0.00,,,0.00,Weather View 32 v70,2013-02-15 17:51:00,
2013-02-15 12:56:00,53.0,35.3,29.90,NNE,22,4.0,18.0,51,0.00,,,0.00,Weather View 32 v70,2013-02-15 17:56:00,
2013-02-15 13:01:00,53.0,34.3,29.89,SW,225,5.0,18.0,49,0.00,,,0.00,Weather View 32 v70,2013-02-15 18:01:00,
2013-02-15 13:07:00,54.0,35.7,29.89,SSW,202,6.0,18.0,50,0.00,,,0.00,Weather View 32 v70,2013-02-15 18:07:00,
2013-02-15 13:12:00,54.0,35.7,29.89,West,270,4.0,18.0,50,0.00,,,0.00,Weather View 32 v70,2013-02-15 18:12:00,
2013-02-15 13:17:00,54.0,35.7,29.89,NW,315,2.0,18.0,50,0.00,,,0.00,Weather View 32 v70,2013-02-15 18:17:00,
2013-02-15 13:22:00,54.0,36.2,29.89,ESE,112,2.0,18.0,51,0.00,,,0.00,Weather View 32 v70,2013-02-15 18:22:00,
2013-02-15 13:27:00,54.0,35.7,29.88,WSW,248,3.0,17.0,50,0.00,,,0.00,Weather View 32 v70,2013-02-15 18:27:00,
2013-02-15 13:32:00,54.0,35.2,29.87,ENE,68,3.0,16.0,49,0.00,,,0.00,Weather View 32 v70,2013-02-15 18:32:00,
2013-02-15 13:37:00,54.0,35.2,29.87,South,180,5.0,16.0,49,0.00,,,0.00,Weather View 32 v70,2013-02-15 18:37:00,
2013-02-15 13:42:00,54.0,35.2,29.87,ENE,68,5.0,16.0,49,0.00,,,0.00,Weather View 32 v70,2013-02-15 18:42:00,
2013-02-15 13:47:00,54.0,35.7,29.87,SW,225,7.0,23.0,50,0.00,,,0.00,Weather View 32 v70,2013-02-15 18:47:00,
2013-02-15 13:52:00,55.0,35.6,29.87,ENE,68,2.0,23.0,48,0.00,,,0.00,Weather View 32 v70,2013-02-15 18:52:00,
2013-02-15 13:57:00,54.0,34.2,29.86,SSW,202,7.0,23.0,47,0.00,,,0.00,Weather View 32 v70,2013-02-15 18:57:00,
2013-02-15 14:02:00,54.0,34.7,29.86,West,270,5.0,23.0,48,0.00,,,0.00,Weather View 32 v70,2013-02-15 19:02:00,
2013-02-15 14:07:00,53.0,34.3,29.86,SSE,158,7.0,23.0,49,0.00,,,0.00,Weather View 32 v70,2013-02-15 19:07:00,
2013-02-15 14:12:00,54.0,35.2,29.85,SW,225,5.0,23.0,49,0.00,,,0.00,Weather View 32 v70,2013-02-15 19:12:00,
2013-02-15 14:17:00,54.0,35.2,29.85,WNW,292,3.0,23.0,49,0.00,,,0.00,Weather View 32 v70,2013-02-15 19:17:00,
2013-02-15 14:22:00,55.0,36.2,29.85,WSW,248,6.0,23.0,49,0.00,,,0.00,Weather View 32 v70,2013-02-15 19:22:00,
2013-02-15 14:27:00,55.0,35.1,29.85,South,180,3.0,23.0,47,0.00,,,0.00,Weather View 32 v70,2013-02-15 19:27:00,
2013-02-15 14:32:00,55.0,35.6,29.84,WSW,248,6.0,23.0,48,0.00,,,0.00,Weather View 32 v70,2013-02-15 19:32:00,
2013-02-15 14:37:00,55.0,35.6,29.84,WSW,248,5.0,23.0,48,0.00,,,0.00,Weather View 32 v70,2013-02-15 19:37:00,
2013-02-15 14:42:00,55.0,36.2,29.84,SSW,202,3.0,23.0,49,0.00,,,0.00,Weather View 32 v70,2013-02-15 19:42:00,
2013-02-15 14:47:00,55.0,35.6,29.83,SSW,202,5.0,15.0,48,0.00,,,0.00,Weather View 32 v70,2013-02-15 19:47:00,
2013-02-15 14:52:00,55.0,35.6,29.84,WSW,248,2.0,15.0,48,0.00,,,0.00,Weather View 32 v70,2013-02-15 19:52:00,
2013-02-15 14:57:00,55.0,35.6,29.83,WSW,248,13.0,15.0,48,0.00,,,0.00,Weather View 32 v70,2013-02-15 19:57:00,
2013-02-15 15:02:00,54.0,35.2,29.83,East,90,10.0,15.0,49,0.00,,,0.00,Weather View 32 v70,2013-02-15 20:02:00,
2013-02-15 15:07:00,55.0,36.7,29.83,ENE,68,3.0,15.0,50,0.00,,,0.00,Weather View 32 v70,2013-02-15 20:07:00,
2013-02-15 15:12:00,55.0,36.7,29.83,West,270,6.0,15.0,50,0.00,,,0.00,Weather View 32 v70,2013-02-15 20:12:00,
2013-02-15 15:17:00,54.0,35.7,29.83,ESE,112,2.0,14.0,50,0.00,,,0.00,Weather View 32 v70,2013-02-15 20:17:00,
2013-02-15 15:22:00,54.0,35.7,29.83,NW,315,3.0,14.0,50,0.00,,,0.00,Weather View 32 v70,2013-02-15 20:22:00,
2013-02-15 15:27:00,54.0,35.7,29.83,East,90,2.0,14.0,50,0.00,,,0.00,Weather View 32 v70,2013-02-15 20:27:00,
2013-02-15 15:32:00,54.0,35.7,29.83,SSW,202,3.0,14.0,50,0.00,,,0.00,Weather View 32 v70,2013-02-15 20:32:00,
2013-02-15 15:37:00,54.0,36.2,29.83,NNE,22,5.0,14.0,51,0.00,,,0.00,Weather View 32 v70,2013-02-15 20:37:00,
2013-02-15 15:43:00,54.0,36.2,29.83,ESE,112,3.0,14.0,51,0.00,,,0.00,Weather View 32 v70,2013-02-15 20:43:00,
2013-02-15 15:48:00,53.0,35.3,29.83,NNE,22,5.0,14.0,51,0.00,,,0.00,Weather View 32 v70,2013-02-15 20:48:00,
2013-02-15 15:53:00,53.0,35.8,29.83,SSW,202,6.0,14.0,52,0.00,,,0.00,Weather View 32 v70,2013-02-15 20:53:00,
2013-02-15 15:58:00,53.0,36.3,29.83,SSW,202,3.0,14.0,53,0.00,,,0.00,Weather View 32 v70,2013-02-15 20:58:00,
2013-02-15 16:03:00,53.0,35.8,29.83,NNW,338,2.0,14.0,52,0.00,,,0.00,Weather View 32 v70,2013-02-15 21:03:00,
2013-02-15 16:08:00,52.0,35.4,29.83,SW,225,7.0,14.0,53,0.00,,,0.00,Weather View 32 v70,2013-02-15 21:08:00,
2013-02-15 16:13:00,52.0,35.4,29.83,SW,225,6.0,14.0,53,0.00,,,0.00,Weather View 32 v70,2013-02-15 21:13:00,
2013-02-15 16:18:00,52.0,35.8,29.83,NNE,22,2.0,14.0,54,0.00,,,0.00,Weather View 32 v70,2013-02-15 21:18:00,
2013-02-15 16:23:00,52.0,35.8,29.83,WSW,248,2.0,14.0,54,0.00,,,0.00,Weather View 32 v70,2013-02-15 21:23:00,
2013-02-15 16:28:00,52.0,36.3,29.83,SSW,202,8.0,14.0,55,0.00,,,0.00,Weather View 32 v70,2013-02-15 21:28:00,
2013-02-15 16:33:00,52.0,35.8,29.83,SSW,202,6.0,14.0,54,0.00,,,0.00,Weather View 32 v70,2013-02-15 21:33:00,
2013-02-15 16:38:00,52.0,35.8,29.83,WSW,248,5.0,14.0,54,0.00,,,0.00,Weather View 32 v70,2013-02-15 21:38:00,
2013-02-15 16:43:00,52.0,35.4,29.83,ENE,68,3.0,14.0,53,0.00,,,0.00,Weather View 32 v70,2013-02-15 21:43:00,
2013-02-15 16:48:00,52.0,35.4,29.83,SSW,202,7.0,14.0,53,0.00,,,0.00,Weather View 32 v70,2013-02-15 21:48:00,
2013-02-15 16:53:00,52.0,35.4,29.83,SW,225,5.0,12.0,53,0.00,,,0.00,Weather View 32 v70,2013-02-15 21:53:00,
2013-02-15 16:58:00,53.0,36.3,29.82,SW,225,4.0,12.0,53,0.00,,,0.00,Weather View 32 v70,2013-02-15 21:58:00,
2013-02-15 17:03:00,54.0,37.2,29.83,South,180,4.0,12.0,53,0.00,,,0.00,Weather View 32 v70,2013-02-15 22:03:00,
2013-02-15 17:08:00,54.0,35.7,29.83,SW,225,2.0,12.0,50,0.00,,,0.00,Weather View 32 v70,2013-02-15 22:08:00,
2013-02-15 17:13:00,54.0,35.7,29.83,ESE,112,1.0,12.0,50,0.00,,,0.00,Weather View 32 v70,2013-02-15 22:13:00,
2013-02-15 17:18:00,53.0,34.8,29.83,WNW,292,5.0,13.0,50,0.00,,,0.00,Weather View 32 v70,2013-02-15 22:18:00,
2013-02-15 17:23:00,53.0,35.3,29.83,West,270,2.0,13.0,51,0.00,,,0.00,Weather View 32 v70,2013-02-15 22:23:00,
2013-02-15 17:29:00,52.0,34.4,29.83,WSW,248,4.0,13.0,51,0.00,,,0.00,Weather View 32 v70,2013-02-15 22:29:00,
2013-02-15 17:34:00,51.0,34.0,29.83,SSW,202,5.0,13.0,52,0.00,,,0.00,Weather View 32 v70,2013-02-15 22:34:00,
2013-02-15 17:39:00,51.0,33.5,29.83,West,270,8.0,13.0,51,0.00,,,0.00,Weather View 32 v70,2013-02-15 22:39:00,
2013-02-15 17:44:00,51.0,34.4,29.83,South,180,5.0,13.0,53,0.00,,,0.00,Weather View 32 v70,2013-02-15 22:44:00,
2013-02-15 17:49:00,51.0,34.4,29.83,ESE,112,2.0,13.0,53,0.00,,,0.00,Weather View 32 v70,2013-02-15 22:49:00,
2013-02-15 17:54:00,50.0,33.0,29.83,SSW,202,8.0,14.0,52,0.00,,,0.00,Weather View 32 v70,2013-02-15 22:54:00,
2013-02-15 17:59:00,50.0,32.6,29.83,SSW,202,3.0,14.0,51,0.00,,,0.00,Weather View 32 v70,2013-02-15 22:59:00,
2013-02-15 18:04:00,50.0,32.6,29.83,SSW,202,5.0,14.0,51,0.00,,,0.00,Weather View 32 v70,2013-02-15 23:04:00,
2013-02-15 18:09:00,50.0,32.1,29.84,WSW,248,8.0,14.0,50,0.00,,,0.00,Weather View 32 v70,2013-02-15 23:09:00,
2013-02-15 18:14:00,50.0,32.1,29.84,West,270,6.0,14.0,50,0.00,,,0.00,Weather View 32 v70,2013-02-15 23:14:00,
2013-02-15 18:19:00,50.0,32.1,29.84,NNW,338,7.0,14.0,50,0.00,,,0.00,Weather View 32 v70,2013-02-15 23:19:00,
2013-02-15 18:24:00,49.0,36.1,29.85,NNE,22,10.0,21.0,61,0.00,,,0.00,Weather View 32 v70,2013-02-15 23:24:00,
2013-02-15 18:29:00,48.0,37.5,29.85,NE,45,9.0,21.0,67,0.00,,,0.00,Weather View 32 v70,2013-02-15 23:29:00,
2013-02-15 18:34:00,47.0,38.1,29.86,NNE,22,5.0,21.0,71,0.00,,,0.00,Weather View 32 v70,2013-02-15 23:34:00,
2013-02-15 18:39:00,46.0,37.8,29.86,North,0,5.0,21.0,73,0.00,,,0.00,Weather View 32 v70,2013-02-15 23:39:00,
2013-02-15 18:44:00,45.0,37.5,29.86,NW,315,8.0,21.0,75,0.00,,,0.00,Weather View 32 v70,2013-02-15 23:44:00,
2013-02-15 18:49:00,45.0,38.2,29.86,NNW,338,6.0,21.0,77,0.00,,,0.00,Weather View 32 v70,2013-02-15 23:49:00,
2013-02-15 18:54:00,44.0,37.9,29.86,North,0,6.0,21.0,79,0.00,,,0.00,Weather View 32 v70,2013-02-15 23:54:00,
2013-02-15 18:59:00,44.0,38.2,29.86,NW,315,9.0,21.0,80,0.00,,,0.00,Weather View 32 v70,2013-02-15 23:59:00,
2013-02-15 19:04:00,44.0,38.9,29.86,North,0,9.0,21.0,82,0.00,,,0.00,Weather View 32 v70,2013-02-16 00:04:00,
2013-02-15 19:09:00,43.0,38.5,29.86,NNE,22,6.0,21.0,84,0.00,,,0.00,Weather View 32 v70,2013-02-16 00:09:00,
2013-02-15 19:14:00,43.0,38.8,29.86,NNW,338,4.0,21.0,85,0.00,,,0.00,Weather View 32 v70,2013-02-16 00:14:00,
2013-02-15 19:19:00,43.0,39.1,29.86,North,0,10.0,21.0,86,0.00,,,0.00,Weather View 32 v70,2013-02-16 00:19:00,
2013-02-15 19:24:00,42.0,38.4,29.86,NNW,338,11.0,18.0,87,0.00,,,0.00,Weather View 32 v70,2013-02-16 00:24:00,
2013-02-15 19:29:00,42.0,38.4,29.86,NNW,338,9.0,16.0,87,0.00,,,0.00,Weather View 32 v70,2013-02-16 00:29:00,
2013-02-15 19:34:00,41.0,37.7,29.86,North,0,14.0,18.0,88,0.00,,,0.00,Weather View 32 v70,2013-02-16 00:34:00,
2013-02-15 19:39:00,41.0,37.7,29.86,North,0,14.0,23.0,88,0.00,,,0.00,Weather View 32 v70,2013-02-16 00:39:00,
2013-02-15 19:44:00,41.0,38.0,29.87,North,0,10.0,23.0,89,0.00,,,0.00,Weather View 32 v70,2013-02-16 00:44:00,
2013-02-15 19:49:00,40.0,37.3,29.87,North,0,11.0,23.0,90,0.00,,,0.00,Weather View 32 v70,2013-02-16 00:49:00,
2013-02-15 19:54:00,40.0,37.3,29.87,North,0,11.0,23.0,90,0.00,,,0.00,Weather View 32 v70,2013-02-16 00:54:00,
2013-02-15 19:59:00,40.0,37.6,29.87,NW,315,9.0,23.0,91,0.00,,,0.00,Weather View 32 v70,2013-02-16 00:59:00,
2013-02-15 20:04:00,40.0,37.6,29.87,NW,315,11.0,23.0,91,0.00,,,0.00,Weather View 32 v70,2013-02-16 01:04:00,
2013-02-15 20:09:00,40.0,37.6,29.87,NNE,22,6.0,23.0,91,0.00,,,0.00,Weather View 32 v70,2013-02-16 01:09:00,
2013-02-15 20:14:00,39.0,36.9,29.87,NW,315,5.0,23.0,92,0.00,,,0.00,Weather View 32 v70,2013-02-16 01:14:00,
2013-02-15 20:19:00,39.0,37.1,29.87,NNW,338,7.0,23.0,93,0.00,,,0.00,Weather View 32 v70,2013-02-16 01:19:00,
2013-02-15 20:24:00,39.0,37.1,29.87,NW,315,16.0,23.0,93,0.00,,,0.00,Weather View 32 v70,2013-02-16 01:24:00,
2013-02-15 20:29:00,39.0,37.1,29.87,North,0,10.0,23.0,93,0.00,,,0.00,Weather View 32 v70,2013-02-16 01:29:00,
2013-02-15 20:35:00,38.0,36.2,29.87,NW,315,11.0,23.0,93,0.00,,,0.00,Weather View 32 v70,2013-02-16 01:35:00,
2013-02-15 20:40:00,38.0,36.2,29.87,NW,315,6.0,21.0,93,0.00,,,0.00,Weather View 32 v70,2013-02-16 01:40:00,
2013-02-15 20:45:00,38.0,36.2,29.87,NNW,338,6.0,21.0,93,0.00,,,0.00,Weather View 32 v70,2013-02-16 01:45:00,
2013-02-15 20:50:00,38.0,36.2,29.87,North,0,11.0,21.0,93,0.00,,,0.00,Weather View 32 v70,2013-02-16 01:50:00,
2013-02-15 20:55:00,38.0,36.2,29.87,NNW,338,9.0,21.0,93,0.00,,,0.00,Weather View 32 v70,2013-02-16 01:55:00,
2013-02-15 21:00:00,37.0,35.2,29.88,NNW,338,8.0,21.0,93,0.00,,,0.00,Weather View 32 v70,2013-02-16 02:00:00,
2013-02-15 21:05:00,37.0,35.2,29.88,WNW,292,4.0,21.0,93,0.00,,,0.00,Weather View 32 v70,2013-02-16 02:05:00,
2013-02-15 21:10:00,37.0,35.2,29.88,North,0,4.0,21.0,93,0.00,,,0.00,Weather View 32 v70,2013-02-16 02:10:00,
2013-02-15 21:15:00,37.0,35.2,29.88,North,0,7.0,21.0,93,0.00,,,0.00,Weather View 32 v70,2013-02-16 02:15:00,
2013-02-15 21:20:00,37.0,35.4,29.88,NNW,338,9.0,21.0,94,0.00,,,0.00,Weather View 32 v70,2013-02-16 02:20:00,
2013-02-15 21:25:00,37.0,35.4,29.88,NNE,22,8.0,21.0,94,0.00,,,0.00,Weather View 32 v70,2013-02-16 02:25:00,
2013-02-15 21:30:00,37.0,35.4,29.88,NNE,22,6.0,21.0,94,0.00,,,0.00,Weather View 32 v70,2013-02-16 02:30:00,
2013-02-15 21:35:00,37.0,35.2,29.89,WNW,292,5.0,17.0,93,0.00,,,0.00,Weather View 32 v70,2013-02-16 02:35:00,
2013-02-15 21:40:00,36.0,34.2,29.89,North,0,6.0,17.0,93,0.00,,,0.00,Weather View 32 v70,2013-02-16 02:40:00,
2013-02-15 21:45:00,37.0,35.2,29.89,NNE,22,7.0,17.0,93,0.00,,,0.00,Weather View 32 v70,2013-02-16 02:45:00,
2013-02-15 21:50:00,36.0,34.2,29.89,North,0,5.0,17.0,93,0.00,,,0.00,Weather View 32 v70,2013-02-16 02:50:00,
2013-02-15 21:55:00,37.0,35.2,29.89,NNW,338,3.0,17.0,93,0.00,,,0.00,Weather View 32 v70,2013-02-16 02:55:00,
2013-02-15 22:00:00,37.0,34.9,29.89,WNW,292,10.0,17.0,92,0.00,,,0.00,Weather View 32 v70,2013-02-16 03:00:00,
2013-02-15 22:05:00,36.0,33.9,29.89,NW,315,8.0,18.0,92,0.00,,,0.00,Weather View 32 v70,2013-02-16 03:05:00,
2013-02-15 22:10:00,36.0,33.9,29.89,North,0,9.0,18.0,92,0.00,,,0.00,Weather View 32 v70,2013-02-16 03:10:00,
2013-02-15 22:15:00,36.0,34.2,29.88,NNW,338,8.0,18.0,93,0.00,,,0.00,Weather View 32 v70,2013-02-16 03:15:00,
2013-02-15 22:20:00,36.0,34.2,29.88,NNW,338,7.0,18.0,93,0.00,,,0.00,Weather View 32 v70,2013-02-16 03:20:00,
2013-02-15 22:25:00,35.0,33.2,29.88,North,0,10.0,18.0,93,0.00,,,0.00,Weather View 32 v70,2013-02-16 03:25:00,
2013-02-15 22:30:00,35.0,33.2,29.89,West,270,9.0,18.0,93,0.00,,,0.00,Weather View 32 v70,2013-02-16 03:30:00,
2013-02-15 22:35:00,35.0,33.2,29.88,North,0,10.0,18.0,93,0.00,,,0.00,Weather View 32 v70,2013-02-16 03:35:00,
2013-02-15 22:40:00,35.0,33.2,29.88,NNW,338,8.0,18.0,93,0.00,,,0.00,Weather View 32 v70,2013-02-16 03:40:00,
2013-02-15 22:45:00,35.0,33.2,29.88,WNW,292,11.0,20.0,93,0.00,,,0.00,Weather View 32 v70,2013-02-16 03:45:00,
2013-02-15 22:50:00,35.0,32.9,29.88,NNW,338,6.0,20.0,92,0.00,,,0.00,Weather View 32 v70,2013-02-16 03:50:00,
2013-02-15 22:55:00,35.0,33.2,29.88,WNW,292,16.0,23.0,93,0.00,,,0.00,Weather View 32 v70,2013-02-16 03:55:00,
2013-02-15 23:00:00,35.0,32.9,29.88,West,270,7.0,23.0,92,0.00,,,0.00,Weather View 32 v70,2013-02-16 04:00:00,
2013-02-15 23:05:00,35.0,32.9,29.87,NW,315,10.0,23.0,92,0.00,,,0.00,Weather View 32 v70,2013-02-16 04:05:00,
2013-02-15 23:10:00,35.0,32.9,29.87,NNW,338,8.0,23.0,92,0.00,,,0.00,Weather View 32 v70,2013-02-16 04:10:00,
2013-02-15 23:15:00,34.0,32.2,29.87,NNW,338,11.0,23.0,93,0.00,,,0.00,Weather View 32 v70,2013-02-16 04:15:00,
2013-02-15 23:20:00,34.0,32.2,29.87,WNW,292,9.0,23.0,93,0.00,,,0.00,Weather View 32 v70,2013-02-16 04:20:00,
2013-02-15 23:25:00,34.0,32.5,29.87,NNW,338,13.0,23.0,94,0.00,,,0.00,Weather View 32 v70,2013-02-16 04:25:00,
2013-02-15 23:30:00,34.0,32.5,29.87,NNW,338,14.0,23.0,94,0.00,,,0.00,Weather View 32 v70,2013-02-16 04:30:00,
2013-02-15 23:35:00,34.0,32.7,29.87,NNW,338,9.0,23.0,95,0.00,,,0.00,Weather View 32 v70,2013-02-16 04:35:00,
2013-02-15 23:41:00,34.0,32.7,29.86,North,0,14.0,23.0,95,0.00,,,0.00,Weather View 32 v70,2013-02-16 04:41:00,
2013-02-15 23:46:00,34.0,32.7,29.86,North,0,13.0,23.0,95,0.00,,,0.00,Weather View 32 v70,2013-02-16 04:46:00,
2013-02-15 23:51:00,33.0,31.7,29.86,NW,315,13.0,23.0,95,0.00,,,0.00,Weather View 32 v70,2013-02-16 04:51:00,
2013-02-15 23:56:00,33.0,31.7,29.85,North,0,18.0,23.0,95,0.00,,,0.00,Weather View 32 v70,2013-02-16 04:56:00,